Location: ????
(32.1228°N, 34.8377°E)
Time: 00:11:34
(UTC+00:00)

Cosmos 2263 Rocket - Pass Details

Date: 21 September 2020
Orbit: 822 x 849 km, 71.0° (Epoch: 21 October)

Event Time Altitude Azimuth Distance (km) Brightness Sun altitude
Rises 02:10:18 0° 335° (NNW) 3,399 5.2 -17.2°
Reaches altitude 10° 02:12:46 10° 332° (NNW) 2,465 4.5 -16.7°
Maximum altitude 02:18:20 61° 253° (WSW) 953 2.2 -15.6°
Drops below altitude 10° 02:23:54 10° 174° (S) 2,463 4.6 -14.4°
Sets 02:26:22 0° 171° (S) 3,396 5.4 -13.9°
